Other Public Products
Issued by NWS Charleston, SC

Current Version | Previous Version | Graphics & Text | Print | Product List | Glossary On
Versions: 1 2 3 4 5 6 7 8 9 10 11 12 13 14 15 16 17 18 19 20 21 22 23 24 25 26 27 28 29 30 31 32 33 34 35 36 37 38 39 40 41 42 43 44 45 46 47 48 49 50
000
FPUS82 KCHS 150427
OPUCHS

TEST...KCHS/KSAV Gateway Observations...TEST
National Weather Service Charleston SC
1100 PM EST THU DEC 14 2017

NOTE: "fair" indicates few or no clouds below 12,000 feet with no
significant weather and/or obstructions to visibility.

SCZ050-WAZ558-NCZ071-TXZ119-213-PAZ071-DCZ001-FLZ074-172-MI076-
NYZ176-178-MAZ016-IL014-TNZ027-NJZ106-GAZ044-MD014-150500-

...Gateway Observations for Charleston International...

CITY           SKY/WX    TMP DP  RH WIND       PRES   REMARKS
Chas Airport   CLOUDY    49  45  86 SW7       30.01R
Seattle        MOCLDY    40  38  93 S3        30.23F
Charlotte      PTCLDY    45  27  49 NE7       29.97R
Dallas DFW     PTCLDY    47  28  47 N10       30.21R
Dallas Love    PTCLDY    47  27  45 N9        30.22R
Philladelphia  CLOUDY    27  10  49 NW8       30.13R WCI  19
Wash National  MOCLDY    32  15  49 NE10      30.12R WCI  24
Baltimore      CLOUDY    29   9  43 N6        30.10S WCI  23
Miami          CLEAR     62  52  69 CALM      30.11S
Detroit        CLOUDY    18   7  62 SW8       30.08R WCI   8
Newark         MOCLDY    24   4  42 NW12      30.10S WCI  13
Laguardia      CLOUDY    25   8  48 NW9       30.09S WCI  15
J F K          MOCLDY    24   6  46 NW13      30.10S WCI  12
Boston Logan   CLEAR     20   5  52 W15G22    29.99R WCI   6
Ft. Lauderdale CLEAR     60  51  72 SW5       30.10S
Chicago O`Hare MOCLDY    20  11  68 SW3       30.05F
Chicago Midway PTCLDY    21  11  65 SW5       30.07S WCI  15
Houston Bush   CLOUDY    55  45  68 N8        30.09R
Houston Hobby  MOCLDY    56  44  64 N9        30.08R
Nashville      CLOUDY    34  21  59 NW7       30.10S WCI  28
Atlanta        CLOUDY    47  37  68 W7        29.99S

$$

GAZ044-118-TXZ119-213-NCZ071-DCZ001-MDZ014-506-PAZ021-071-NJZ106-
NYZ176-178-MAZ106-OHZ011-021-055-MIZ076-KYZ091-ILZ014-INZ047-
MNZ060-ONZ431-150500-

...Gateway Observations for Savannah International...

CITY           SKY/WX    TMP DP  RH WIND       PRES   REMARKS
Savannah Arpt  CLOUDY    50  39  66 SW5       30.04R
Atlanta        CLOUDY    47  37  68 W7        29.99S
Charlotte      PTCLDY    45  27  49 NE7       29.97R
Dallas DFW     PTCLDY    47  28  47 N10       30.21R
Houston Bush   CLOUDY    55  45  68 N8        30.09R
Wash National  MOCLDY    32  15  49 NE10      30.12R WCI  24
Wash Dulles    MOCLDY    29  13  51 N10       30.10R WCI  20
Baltimore      CLOUDY    29   9  43 N6        30.10S WCI  23
Philadelphia   CLOUDY    27  10  49 NW8       30.13R WCI  19
Newark         MOCLDY    24   4  42 NW12      30.10S WCI  13
Laguardia      CLOUDY    25   8  48 NW9       30.09S WCI  15
J F K          MOCLDY    24   6  46 NW13      30.10S WCI  12
Boston         CLEAR     20   5  52 W15G22    29.99R WCI   6
Pittsburg      CLOUDY    18  11  74 CALM      30.03S
Akron          CLOUDY    15   9  76 W3        30.04S
Cleveland      PTCLDY    12   8  84 SW7       30.10S WCI   1
Cincinnati     CLOUDY    25  17  72 NE6       30.07S WCI  18
Columbus       CLOUDY    21  17  83 N3        30.08S
Detroit        CLOUDY    18   7  62 SW8       30.08R WCI   8
Chicago O`Hare MOCLDY    20  11  68 SW3       30.05F
Minneapolis    CLOUDY    23  17  78 NW14      30.00F WCI  11
Indianapolis   CLOUDY    24  15  68 S5        30.08F WCI  18
Toronto Canada PTCLDY    12   7  79 W9        30.00F WCI   0

$$




USA.gov is the U.S. government's official web portal to all federal, state and local government web resources and services.